Wetterdaten: Mittwoch, 08.10.2014
Datum Zeit Temp. A. Feuchte A. Luftdruck Regen Wind Richtung Richtung Sonnenschein ET UV Solar Taupunkt Windchill Windben Empfang
08.10.2014 00:00 11,1 C 82 % 1010,7 hPa 0,0 l/m 0,0 km/h (0 Bft) O 94 0 min 0,000 mm 0,0 UV-I 0 W/m 8,1 C 11,1 C 0,0 km/h (0 Bft) 0,00 %
08.10.2014 00:15 10,9 C 82 % 1011,0 hPa 0,0 l/m 0,0 km/h (0 Bft) S-SW 193 0 min 0,000 mm 0,0 UV-I 0 W/m 7,9 C 10,9 C 0,0 km/h (0 Bft) 0,00 %
08.10.2014 00:30 10,5 C 84 % 1010,9 hPa 0,0 l/m 0,0 km/h (0 Bft) S-SW 192 0 min 0,000 mm 0,0 UV-I 0 W/m 7,9 C 10,5 C 0,0 km/h (0 Bft) 0,00 %
08.10.2014 00:45 10,4 C 84 % 1011,2 hPa 0,0 l/m 0,0 km/h (0 Bft) S 183 0 min 0,000 mm 0,0 UV-I 0 W/m 7,8 C 10,4 C 0,0 km/h (0 Bft) 0,00 %
08.10.2014 01:00 10,3 C 85 % 1011,5 hPa 0,0 l/m 0,0 km/h (0 Bft) O 82 0 min 0,000 mm 0,0 UV-I 0 W/m 7,9 C 10,3 C 0,0 km/h (0 Bft) 0,00 %
08.10.2014 01:15 10,0 C 85 % 1011,6 hPa 0,0 l/m 0,0 km/h (0 Bft) S-SW 193 0 min 0,000 mm 0,0 UV-I 0 W/m 7,6 C 10,0 C 0,0 km/h (0 Bft) 0,00 %
08.10.2014 01:30 9,7 C 85 % 1012,1 hPa 0,0 l/m 0,0 km/h (0 Bft) S-SW 192 0 min 0,000 mm 0,0 UV-I 0 W/m 7,3 C 9,7 C 0,0 km/h (0 Bft) 0,00 %
08.10.2014 01:45 9,5 C 86 % 1012,3 hPa 0,0 l/m 0,0 km/h (0 Bft) S 188 0 min 0,000 mm 0,0 UV-I 0 W/m 7,3 C 9,5 C 0,0 km/h (0 Bft) 0,00 %
08.10.2014 02:00 9,2 C 86 % 1012,8 hPa 0,0 l/m 0,0 km/h (0 Bft) S 182 0 min 0,000 mm 0,0 UV-I 0 W/m 7,0 C 9,2 C 0,0 km/h (0 Bft) 0,00 %
08.10.2014 02:15 9,2 C 86 % 1013,1 hPa 0,0 l/m 0,0 km/h (0 Bft) S 180 0 min 0,000 mm 0,0 UV-I 0 W/m 7,0 C 9,2 C 0,0 km/h (0 Bft) 0,00 %
08.10.2014 02:30 9,2 C 87 % 1013,5 hPa 0,0 l/m 0,0 km/h (0 Bft) S-SW 205 0 min 0,000 mm 0,0 UV-I 0 W/m 7,2 C 9,2 C 0,0 km/h (0 Bft) 0,00 %
08.10.2014 02:45 9,2 C 87 % 1013,4 hPa 0,0 l/m 0,0 km/h (0 Bft) S 174 0 min 0,000 mm 0,0 UV-I 0 W/m 7,2 C 9,2 C 0,0 km/h (0 Bft) 0,00 %
08.10.2014 03:00 9,2 C 87 % 1013,9 hPa 0,0 l/m 0,0 km/h (0 Bft) S 176 0 min 0,000 mm 0,0 UV-I 0 W/m 7,2 C 9,2 C 0,0 km/h (0 Bft) 0,00 %
08.10.2014 03:15 9,2 C 87 % 1013,6 hPa 0,0 l/m 0,0 km/h (0 Bft) S 174 0 min 0,000 mm 0,0 UV-I 0 W/m 7,2 C 9,2 C 0,0 km/h (0 Bft) 0,00 %
08.10.2014 03:30 9,2 C 87 % 1013,9 hPa 0,0 l/m 0,0 km/h (0 Bft) S-SO 166 0 min 0,000 mm 0,0 UV-I 0 W/m 7,2 C 9,2 C 0,0 km/h (0 Bft) 0,00 %
08.10.2014 03:45 9,2 C 87 % 1013,8 hPa 0,0 l/m 0,0 km/h (0 Bft) S 172 0 min 0,000 mm 0,0 UV-I 0 W/m 7,2 C 9,2 C 0,0 km/h (0 Bft) 0,00 %
08.10.2014 04:00 9,1 C 87 % 1014,2 hPa 0,0 l/m 0,0 km/h (0 Bft) W-SW 256 0 min 0,000 mm 0,0 UV-I 0 W/m 7,1 C 9,1 C 0,0 km/h (0 Bft) 0,00 %
08.10.2014 04:15 8,9 C 87 % 1014,4 hPa 0,0 l/m 0,0 km/h (0 Bft) S 175 0 min 0,000 mm 0,0 UV-I 0 W/m 6,9 C 8,9 C 0,0 km/h (0 Bft) 0,00 %
08.10.2014 04:30 9,1 C 88 % 1014,6 hPa 0,0 l/m 0,0 km/h (0 Bft) S-SW 213 0 min 0,000 mm 0,0 UV-I 0 W/m 7,2 C 9,1 C 0,0 km/h (0 Bft) 0,00 %
08.10.2014 04:45 8,9 C 87 % 1014,7 hPa 0,0 l/m 0,0 km/h (0 Bft) S 175 0 min 0,000 mm 0,0 UV-I 0 W/m 6,9 C 8,9 C 0,0 km/h (0 Bft) 0,00 %
08.10.2014 05:00 8,8 C 87 % 1014,8 hPa 0,0 l/m 0,0 km/h (0 Bft) S 175 0 min 0,000 mm 0,0 UV-I 0 W/m 6,8 C 8,8 C 0,0 km/h (0 Bft) 0,00 %
08.10.2014 05:15 8,8 C 87 % 1015,0 hPa 0,0 l/m 0,0 km/h (0 Bft) SO 143 0 min 0,000 mm 0,0 UV-I 0 W/m 6,8 C 8,8 C 0,0 km/h (0 Bft) 0,00 %
08.10.2014 05:30 8,8 C 87 % 1015,1 hPa 0,0 l/m 0,0 km/h (0 Bft) S 191 0 min 0,000 mm 0,0 UV-I 0 W/m 6,8 C 8,8 C 0,0 km/h (0 Bft) 0,00 %
08.10.2014 05:45 8,9 C 88 % 1015,1 hPa 0,0 l/m 0,0 km/h (0 Bft) S 176 0 min 0,000 mm 0,0 UV-I 0 W/m 7,0 C 8,9 C 0,0 km/h (0 Bft) 0,00 %
08.10.2014 06:00 9,1 C 88 % 1014,9 hPa 0,0 l/m 0,0 km/h (0 Bft) S 176 0 min 0,000 mm 0,0 UV-I 0 W/m 7,2 C 9,1 C 0,0 km/h (0 Bft) 0,00 %
08.10.2014 06:15 9,3 C 87 % 1015,1 hPa 0,0 l/m 0,0 km/h (0 Bft) S 176 0 min 0,000 mm 0,0 UV-I 0 W/m 7,2 C 9,3 C 0,0 km/h (0 Bft) 0,00 %
08.10.2014 06:30 9,4 C 88 % 1015,1 hPa 0,0 l/m 0,0 km/h (0 Bft) S 176 0 min 0,000 mm 0,0 UV-I 0 W/m 7,5 C 9,4 C 0,0 km/h (0 Bft) 0,00 %
08.10.2014 06:45 9,2 C 88 % 1015,2 hPa 0,0 l/m 0,0 km/h (0 Bft) O 98 0 min 0,000 mm 0,0 UV-I 0 W/m 7,3 C 9,2 C 0,0 km/h (0 Bft) 0,00 %
08.10.2014 07:00 8,8 C 88 % 1015,3 hPa 0,0 l/m 0,0 km/h (0 Bft) O-SO 110 0 min 0,000 mm 0,0 UV-I 0 W/m 6,9 C 8,8 C 0,0 km/h (0 Bft) 0,00 %
08.10.2014 07:15 9,0 C 88 % 1015,1 hPa 0,3 l/m 0,0 km/h (0 Bft) S 189 0 min 0,000 mm 0,0 UV-I 0 W/m 7,1 C 9,0 C 0,0 km/h (0 Bft) 0,00 %
08.10.2014 07:30 8,9 C 88 % 1015,1 hPa 0,0 l/m 0,0 km/h (0 Bft) SO 136 0 min 0,000 mm 0,0 UV-I 6 W/m 7,0 C 8,9 C 0,0 km/h (0 Bft) 0,00 %
08.10.2014 07:45 9,1 C 88 % 1015,1 hPa 0,0 l/m 0,0 km/h (0 Bft) SO 144 0 min 0,000 mm 0,0 UV-I 25 W/m 7,2 C 9,1 C 0,0 km/h (0 Bft) 0,00 %
08.10.2014 08:00 9,0 C 88 % 1014,9 hPa 0,0 l/m 0,0 km/h (0 Bft) O-SO 120 0 min 0,000 mm 1,0 UV-I 53 W/m 7,1 C 9,0 C 0,0 km/h (0 Bft) 0,00 %
08.10.2014 08:15 9,6 C 87 % 1014,7 hPa 0,0 l/m 0,0 km/h (0 Bft) O 101 15 min 0,000 mm 1,0 UV-I 92 W/m 7,5 C 9,6 C 0,0 km/h (0 Bft) 0,00 %
08.10.2014 08:30 10,3 C 85 % 1014,8 hPa 0,0 l/m 0,0 km/h (0 Bft) O-SO 121 15 min 0,000 mm 1,0 UV-I 117 W/m 7,9 C 10,3 C 0,0 km/h (0 Bft) 0,00 %
08.10.2014 08:45 10,6 C 83 % 1014,9 hPa 0,0 l/m 0,0 km/h (0 Bft) SO 142 15 min 0,000 mm 1,0 UV-I 135 W/m 7,8 C 10,6 C 0,0 km/h (0 Bft) 0,00 %
08.10.2014 09:00 10,7 C 83 % 1014,2 hPa 0,0 l/m 0,4 km/h (0 Bft) O-NO 59 0 min 0,000 mm 1,0 UV-I 135 W/m 7,9 C 10,7 C 4,0 km/h (1 Bft) 0,00 %
08.10.2014 09:15 11,1 C 82 % 1014,3 hPa 0,0 l/m 5,4 km/h (1 Bft) O-SO 103 0 min 0,000 mm 2,0 UV-I 150 W/m 8,1 C 11,1 C 7,9 km/h (2 Bft) 0,00 %
08.10.2014 09:30 11,1 C 82 % 1014,7 hPa 0,0 l/m 6,5 km/h (2 Bft) O-SO 108 0 min 0,000 mm 2,0 UV-I 149 W/m 8,1 C 11,1 C 7,9 km/h (2 Bft) 0,00 %
08.10.2014 09:45 11,4 C 82 % 1014,1 hPa 0,0 l/m 4,7 km/h (1 Bft) O-SO 105 0 min 0,000 mm 2,0 UV-I 198 W/m 8,4 C 11,4 C 7,9 km/h (2 Bft) 0,00 %
08.10.2014 10:00 11,2 C 83 % 1014,5 hPa 0,0 l/m 1,4 km/h (1 Bft) O-NO 59 0 min 0,000 mm 1,0 UV-I 164 W/m 8,4 C 11,2 C 4,0 km/h (1 Bft) 0,00 %
08.10.2014 10:15 11,1 C 83 % 1014,5 hPa 0,0 l/m 2,9 km/h (1 Bft) O-SO 114 0 min 0,000 mm 2,0 UV-I 137 W/m 8,3 C 11,1 C 7,9 km/h (2 Bft) 0,00 %
08.10.2014 10:30 11,1 C 84 % 1014,1 hPa 0,0 l/m 1,4 km/h (1 Bft) O-NO 77 0 min 0,000 mm 2,0 UV-I 147 W/m 8,5 C 11,1 C 4,0 km/h (1 Bft) 0,00 %
08.10.2014 10:45 11,4 C 83 % 1013,8 hPa 0,0 l/m 1,8 km/h (1 Bft) O-NO 75 0 min 0,000 mm 2,0 UV-I 177 W/m 8,6 C 11,4 C 4,0 km/h (1 Bft) 0,00 %
08.10.2014 11:00 11,5 C 82 % 1013,5 hPa 0,0 l/m 1,8 km/h (1 Bft) O 88 0 min 0,000 mm 2,0 UV-I 152 W/m 8,5 C 11,5 C 4,0 km/h (1 Bft) 0,00 %
08.10.2014 11:15 12,2 C 81 % 1013,0 hPa 0,0 l/m 14,4 km/h (3 Bft) O-SO 116 0 min 0,000 mm 2,0 UV-I 220 W/m 9,0 C 8,0 C 15,8 km/h (3 Bft) 0,00 %
08.10.2014 11:30 12,7 C 81 % 1012,6 hPa 0,0 l/m 0,0 km/h (0 Bft) S-SO 162 0 min 0,000 mm 2,0 UV-I 235 W/m 9,5 C 12,7 C 0,0 km/h (0 Bft) 0,00 %
08.10.2014 11:45 13,7 C 76 % 1011,9 hPa 0,0 l/m 4,0 km/h (1 Bft) O 97 0 min 0,000 mm 3,0 UV-I 276 W/m 9,5 C 13,7 C 4,0 km/h (1 Bft) 0,00 %
08.10.2014 12:00 14,0 C 76 % 1011,7 hPa 0,0 l/m 0,4 km/h (0 Bft) O-SO 117 0 min 0,000 mm 3,0 UV-I 308 W/m 9,8 C 14,0 C 4,0 km/h (1 Bft) 0,00 %
08.10.2014 12:15 14,2 C 76 % 1011,5 hPa 0,0 l/m 0,7 km/h (0 Bft) NW 318 0 min 0,000 mm 3,0 UV-I 245 W/m 10,0 C 14,2 C 4,0 km/h (1 Bft) 0,00 %
08.10.2014 12:30 14,8 C 74 % 1011,1 hPa 0,0 l/m 0,4 km/h (0 Bft) NO 49 0 min 0,000 mm 3,0 UV-I 245 W/m 10,2 C 14,8 C 4,0 km/h (1 Bft) 0,00 %
08.10.2014 12:45 15,5 C 71 % 1010,4 hPa 0,0 l/m 6,5 km/h (2 Bft) NO 42 0 min 0,000 mm 3,0 UV-I 272 W/m 10,3 C 15,5 C 7,9 km/h (2 Bft) 0,00 %
08.10.2014 13:00 15,9 C 70 % 1010,2 hPa 0,0 l/m 4,0 km/h (1 Bft) NO 42 0 min 0,000 mm 3,0 UV-I 304 W/m 10,4 C 15,9 C 7,9 km/h (2 Bft) 0,00 %
08.10.2014 13:15 16,2 C 69 % 1009,9 hPa 0,0 l/m 1,8 km/h (1 Bft) SO 124 0 min 0,000 mm 3,0 UV-I 289 W/m 10,5 C 16,2 C 7,9 km/h (2 Bft) 0,00 %
08.10.2014 13:30 16,3 C 69 % 1009,8 hPa 0,0 l/m 4,0 km/h (1 Bft) NO 51 0 min 0,000 mm 3,0 UV-I 286 W/m 10,6 C 16,3 C 4,0 km/h (1 Bft) 0,00 %
08.10.2014 13:45 16,4 C 69 % 1009,4 hPa 0,0 l/m 8,3 km/h (2 Bft) O-NO 75 0 min 0,000 mm 3,0 UV-I 276 W/m 10,7 C 15,4 C 11,9 km/h (2 Bft) 0,00 %
08.10.2014 14:00 16,7 C 68 % 1009,8 hPa 0,0 l/m 2,9 km/h (1 Bft) NO 43 0 min 0,000 mm 3,0 UV-I 270 W/m 10,8 C 16,7 C 7,9 km/h (2 Bft) 0,00 %
08.10.2014 14:15 16,7 C 68 % 1009,4 hPa 0,0 l/m 2,2 km/h (1 Bft) O-SO 120 0 min 0,000 mm 2,0 UV-I 255 W/m 10,8 C 16,7 C 4,0 km/h (1 Bft) 0,00 %
08.10.2014 14:30 16,7 C 66 % 1009,1 hPa 0,0 l/m 10,8 km/h (2 Bft) SO 131 0 min 0,000 mm 2,0 UV-I 238 W/m 10,3 C 14,7 C 15,8 km/h (3 Bft) 0,00 %
08.10.2014 14:45 17,0 C 64 % 1009,1 hPa 0,0 l/m 1,4 km/h (1 Bft) O-SO 121 0 min 0,000 mm 2,0 UV-I 231 W/m 10,1 C 17,0 C 4,0 km/h (1 Bft) 0,00 %
08.10.2014 15:00 17,5 C 63 % 1008,8 hPa 0,0 l/m 7,2 km/h (2 Bft) O-SO 103 0 min 0,000 mm 2,0 UV-I 255 W/m 10,4 C 17,1 C 11,9 km/h (2 Bft) 0,00 %
08.10.2014 15:15 17,5 C 64 % 1008,9 hPa 0,0 l/m 0,7 km/h (0 Bft) O-NO 68 0 min 0,000 mm 2,0 UV-I 253 W/m 10,6 C 17,5 C 4,0 km/h (1 Bft) 0,00 %
08.10.2014 15:30 16,9 C 65 % 1008,9 hPa 0,0 l/m 10,8 km/h (2 Bft) O 93 0 min 0,000 mm 2,0 UV-I 214 W/m 10,3 C 14,9 C 11,9 km/h (2 Bft) 0,00 %
08.10.2014 15:45 16,9 C 65 % 1008,9 hPa 0,0 l/m 5,8 km/h (2 Bft) O 94 0 min 0,000 mm 2,0 UV-I 206 W/m 10,3 C 16,9 C 7,9 km/h (2 Bft) 0,00 %
08.10.2014 16:00 16,8 C 65 % 1008,8 hPa 0,0 l/m 4,0 km/h (1 Bft) O 98 0 min 0,000 mm 2,0 UV-I 194 W/m 10,2 C 16,8 C 7,9 km/h (2 Bft) 0,00 %
08.10.2014 16:15 16,8 C 66 % 1008,7 hPa 0,0 l/m 16,9 km/h (3 Bft) O-SO 107 0 min 0,000 mm 1,0 UV-I 184 W/m 10,4 C 12,8 C 19,8 km/h (3 Bft) 0,00 %
08.10.2014 16:30 16,7 C 67 % 1008,3 hPa 0,0 l/m 2,2 km/h (1 Bft) O-SO 103 15 min 0,000 mm 1,0 UV-I 181 W/m 10,5 C 16,7 C 7,9 km/h (2 Bft) 0,00 %
08.10.2014 16:45 16,8 C 66 % 1008,5 hPa 0,0 l/m 9,0 km/h (2 Bft) O-NO 78 15 min 0,000 mm 1,0 UV-I 383 W/m 10,4 C 15,5 C 11,9 km/h (2 Bft) 0,00 %
08.10.2014 17:00 16,6 C 69 % 1009,1 hPa 0,0 l/m 0,7 km/h (0 Bft) O 84 15 min 0,000 mm 1,0 UV-I 157 W/m 10,9 C 16,6 C 4,0 km/h (1 Bft) 0,00 %
08.10.2014 17:15 16,4 C 69 % 1009,1 hPa 0,0 l/m 1,4 km/h (1 Bft) O 89 15 min 0,000 mm 1,0 UV-I 147 W/m 10,7 C 16,4 C 4,0 km/h (1 Bft) 0,00 %
08.10.2014 17:30 16,0 C 70 % 1009,4 hPa 0,0 l/m 0,0 km/h (0 Bft) S 177 15 min 0,000 mm 1,0 UV-I 91 W/m 10,5 C 16,0 C 0,0 km/h (0 Bft) 0,00 %
08.10.2014 17:45 15,6 C 71 % 1009,6 hPa 0,0 l/m 0,7 km/h (0 Bft) S-SO 160 0 min 0,000 mm 0,0 UV-I 59 W/m 10,4 C 15,6 C 4,0 km/h (1 Bft) 0,00 %
08.10.2014 18:00 15,2 C 73 % 1009,5 hPa 0,0 l/m 0,0 km/h (0 Bft) S 174 0 min 0,000 mm 0,0 UV-I 32 W/m 10,4 C 15,2 C 0,0 km/h (0 Bft) 0,00 %
08.10.2014 18:15 14,7 C 75 % 1009,5 hPa 0,0 l/m 0,0 km/h (0 Bft) SO 136 0 min 0,000 mm 0,0 UV-I 8 W/m 10,3 C 14,7 C 0,0 km/h (0 Bft) 0,00 %
08.10.2014 18:30 14,3 C 76 % 1009,7 hPa 0,0 l/m 1,4 km/h (1 Bft) O-SO 120 0 min 0,000 mm 0,0 UV-I 0 W/m 10,1 C 14,3 C 4,0 km/h (1 Bft) 0,00 %
08.10.2014 18:45 13,9 C 78 % 1009,9 hPa 0,0 l/m 1,4 km/h (1 Bft) O 97 0 min 0,000 mm 0,0 UV-I 0 W/m 10,1 C 13,9 C 4,0 km/h (1 Bft) 0,00 %
08.10.2014 19:00 13,3 C 80 % 1010,1 hPa 0,0 l/m 0,0 km/h (0 Bft) O-SO 106 0 min 0,000 mm 0,0 UV-I 0 W/m 9,9 C 13,3 C 0,0 km/h (0 Bft) 0,00 %
08.10.2014 19:15 13,1 C 81 % 1010,1 hPa 0,0 l/m 0,0 km/h (0 Bft) S-SW 192 0 min 0,000 mm 0,0 UV-I 0 W/m 9,9 C 13,1 C 0,0 km/h (0 Bft) 0,00 %
08.10.2014 19:30 12,8 C 82 % 1010,3 hPa 0,0 l/m 0,7 km/h (0 Bft) O-SO 110 0 min 0,000 mm 0,0 UV-I 0 W/m 9,8 C 12,8 C 4,0 km/h (1 Bft) 0,00 %
08.10.2014 19:45 12,7 C 82 % 1010,2 hPa 0,0 l/m 0,7 km/h (0 Bft) O 95 0 min 0,000 mm 0,0 UV-I 0 W/m 9,7 C 12,7 C 4,0 km/h (1 Bft) 0,00 %
08.10.2014 20:00 12,5 C 82 % 1010,4 hPa 0,0 l/m 0,0 km/h (0 Bft) SO 131 0 min 0,000 mm 0,0 UV-I 0 W/m 9,5 C 12,5 C 0,0 km/h (0 Bft) 0,00 %
08.10.2014 20:15 12,3 C 82 % 1010,5 hPa 0,0 l/m 0,0 km/h (0 Bft) S-SO 155 0 min 0,000 mm 0,0 UV-I 0 W/m 9,3 C 12,3 C 0,0 km/h (0 Bft) 0,00 %
08.10.2014 20:30 12,2 C 83 % 1010,7 hPa 0,0 l/m 1,4 km/h (1 Bft) SO 136 0 min 0,000 mm 0,0 UV-I 0 W/m 9,4 C 12,2 C 4,0 km/h (1 Bft) 0,00 %
08.10.2014 20:45 12,4 C 83 % 1010,6 hPa 0,0 l/m 0,0 km/h (0 Bft) O-SO 117 0 min 0,000 mm 0,0 UV-I 0 W/m 9,6 C 12,4 C 0,0 km/h (0 Bft) 0,00 %
08.10.2014 21:00 12,3 C 82 % 1010,8 hPa 0,0 l/m 0,0 km/h (0 Bft) SO 130 0 min 0,000 mm 0,0 UV-I 0 W/m 9,3 C 12,3 C 0,0 km/h (0 Bft) 0,00 %
08.10.2014 21:15 12,0 C 83 % 1010,8 hPa 0,0 l/m 0,0 km/h (0 Bft) SO 129 0 min 0,000 mm 0,0 UV-I 0 W/m 9,2 C 12,0 C 0,0 km/h (0 Bft) 0,00 %
08.10.2014 21:30 11,9 C 84 % 1010,8 hPa 0,0 l/m 0,0 km/h (0 Bft) S-SO 149 0 min 0,000 mm 0,0 UV-I 0 W/m 9,3 C 11,9 C 0,0 km/h (0 Bft) 0,00 %
08.10.2014 21:45 11,8 C 84 % 1010,8 hPa 0,0 l/m 0,0 km/h (0 Bft) O-SO 116 0 min 0,000 mm 0,0 UV-I 0 W/m 9,2 C 11,8 C 0,0 km/h (0 Bft) 0,00 %
08.10.2014 22:00 11,6 C 85 % 1010,8 hPa 0,0 l/m 0,0 km/h (0 Bft) O-SO 115 0 min 0,000 mm 0,0 UV-I 0 W/m 9,2 C 11,6 C 0,0 km/h (0 Bft) 0,00 %
08.10.2014 22:15 11,5 C 85 % 1010,7 hPa 0,0 l/m 0,0 km/h (0 Bft) O-NO 64 0 min 0,000 mm 0,0 UV-I 0 W/m 9,1 C 11,5 C 0,0 km/h (0 Bft) 0,00 %
08.10.2014 22:30 11,5 C 86 % 1010,8 hPa 0,0 l/m 0,0 km/h (0 Bft) O-NO 64 0 min 0,000 mm 0,0 UV-I 0 W/m 9,2 C 11,5 C 0,0 km/h (0 Bft) 0,00 %
08.10.2014 22:45 11,3 C 86 % 1010,9 hPa 0,0 l/m 0,0 km/h (0 Bft) O-SO 113 0 min 0,000 mm 0,0 UV-I 0 W/m 9,0 C 11,3 C 0,0 km/h (0 Bft) 0,00 %
08.10.2014 23:00 11,3 C 86 % 1010,7 hPa 0,0 l/m 0,0 km/h (0 Bft) O-SO 105 0 min 0,000 mm 0,0 UV-I 0 W/m 9,0 C 11,3 C 0,0 km/h (0 Bft) 0,00 %
08.10.2014 23:15 11,2 C 86 % 1010,8 hPa 0,0 l/m 0,0 km/h (0 Bft) SW 217 0 min 0,000 mm 0,0 UV-I 0 W/m 8,9 C 11,2 C 0,0 km/h (0 Bft) 0,00 %
08.10.2014 23:30 10,9 C 86 % 1010,9 hPa 0,0 l/m 0,0 km/h (0 Bft) SW 215 0 min 0,000 mm 0,0 UV-I 0 W/m 8,7 C 10,9 C 0,0 km/h (0 Bft) 0,00 %
08.10.2014 23:45 10,7 C 86 % 1010,4 hPa 0,0 l/m 0,0 km/h (0 Bft) S 182 0 min 0,000 mm 0,0 UV-I 0 W/m 8,5 C 10,7 C 0,0 km/h (0 Bft) 0,00 %
_ Min-Zeit 05:00 15:00 16:30 - 00:00 - - - - - - 05:00 11:15 00:00 00:00
Minimum _ 8,8 C 63 % 1008,3 hPa - 0,0 km/h (0 Bft) - - - - - - 6,8 C 8,0 C 0,0 km/h (0 Bft) 0,00 %
_ Max-Zeit 15:00 04:30 07:00 07:15 16:15 - - 08:15 00:00 11:45 16:45 17:00 15:15 16:15 00:00
Maximum _ 17,5 C 88 % 1015,3 hPa 0,3 l/m 16,9 km/h
O-SO (3 Bft)
- - 15 min 0,000 mm 3,0 UV-I 383 W/m 10,9 C 17,5 C 19,8 km/h
O-SO (3 Bft)
0,00 %
Durchschnitt _ 12,2 C 80 % 1011,9 hPa #0,3 l/m 1,6 km/h (1 Bft) O-SO - #2:00 h #0,000 mm 1,9 UV-I 185 W/m 8,8 C 12,0 C 2,8 km/h (1 Bft) 0,00 %